Regional Weather Roundup
Issued by NWS Wilmington, NC

Home | Current Version | Previous Version | Text Only | Print | Product List | Glossary On
Versions: 1 2 3 4 5 6 7 8 9 10 11 12 13 14 15 16 17 18 19 20 21 22 23 24 25 26 27 28 29 30 31 32 33 34 35 36 37 38 39 40 41 42 43 44 45 46 47 48 49 50
000
ASUS42 KILM 101113
RWRILM
RWRILM
REGIONAL HOURLY WEATHER ROUNDUP
NATIONAL WEATHER SERVICE WILMINGTON NC
600 AM EST WED FEB 10 2016

NOTE: "FAIR" INDICATES FEW OR NO CLOUDS BELOW 12,000 FEET WITH NO
SIGNIFICANT WEATHER AND/OR OBSTRUCTIONS TO VISIBILITY.

...............WFO WILMINGTON COUNTY WARNING AREA...............

......COASTAL NC AND SC COUNTIES......

CITY           SKY/WX    TMP DP  RH WIND       PRES   REMARKS
WILMINGTON     MOCLDY    34  16  47 W9        29.93R WCI  27
N MYRTLE BEACH CLEAR     31  21  66 W8        29.95R WCI  23
MYRTLE BEACH   CLEAR     30  16  55 W12G18    29.98S WCI  21

......INLAND NC AND SC COUNTIES.......

CITY           SKY/WX    TMP DP  RH WIND       PRES   REMARKS
LUMBERTON      PTCLDY    30  16  56 W8        29.93R WCI  22
ELIZABETHTOWN  PTCLDY    29  18  61 CALM      29.93R
WHITEVILLE     CLEAR     32  15  50 CALM      29.93R
FLORENCE       CLEAR     29  20  69 W9        29.95S WCI  20
DARLINGTON     CLEAR     28  19  69 W8        29.95S WCI  20
KINGSTREE      FAIR      30  18  59 SW7       29.98R WCI  23
HARTSVILLE     FAIR      28  21  74 W3        29.94R
BENNETTSVILLE  FAIR      32  19  59 SW6       29.94S WCI  26
CONWAY         FAIR      30  21  69 SW5       29.97R WCI  25
GEORGETOWN     FAIR      30  19  64 W6        29.99R WCI  24
MARION         FAIR      32  23  69 W7        29.95S WCI  26

....................REST OF NORTH CAROLINA......................

.........EASTERN NC.........

CITY           SKY/WX    TMP DP  RH WIND       PRES   REMARKS
CAPE HATTERAS  PTCLDY    34  20  56 NW15G30   29.83R WCI  24
JACKSONVILLE   CLEAR     28  12  50 SW8       29.92R WCI  20
MOREHEAD CITY  CLEAR     31  16  54 W15       29.90R WCI  20
KENANSVILLE    PTCLDY    28  17  63 CALM      29.93R
NEW BERN       CLEAR     29  15  56 W8        29.91R WCI  21
ELIZABETH CITY CLEAR     28  16  60 W13       29.82R WCI  17

.........CENTRAL NC.........

CITY           SKY/WX    TMP DP  RH WIND       PRES   REMARKS
RALEIGH DURHAM CLEAR     26  13  57 SW7       29.89R WCI  18
ROCKY MOUNT    CLEAR     27  16  63 W10       29.88R WCI  17
ROANOKE RAPIDS NOT AVBL
FAYETTEVILLE   PTCLDY    27  16  63 W5        29.92R WCI  22
HOFFMAN        CLEAR     24  15  69 W3        29.91R

.........WESTERN NC.........

CITY           SKY/WX    TMP DP  RH WIND       PRES   REMARKS
CHARLOTTE      CLEAR     23  13  65 W5        29.91R WCI  17
GREENSBORO     CLEAR     21  11  65 W6        29.86R WCI  13
HICKORY        NOT AVBL
BOONE          NOT AVBL
ASHEVILLE      NOT AVBL

.....................REST OF SOUTH CAROLINA.....................

.........EASTERN SC.........

CITY           SKY/WX    TMP DP  RH WIND       PRES   REMARKS
CHARLESTON     CLEAR     31  18  58 W8        30.02R WCI  23
BEAUFORT MCAS  CLEAR     31  19  61 W9        30.05R WCI  23
HILTON HEAD    NOT AVBL

.........CENTRAL SC.........

CITY           SKY/WX    TMP DP  RH WIND       PRES   REMARKS
COLUMBIA       PTCLDY    28  12  51 W13       29.98R WCI  17
ORANGEBURG     CLEAR     29  15  56 W12       30.00R WCI  19
SUMTER SHAW    CLEAR     27  15  60 W8        29.95R WCI  19

.........WESTERN SC.........

CITY           SKY/WX    TMP DP  RH WIND       PRES   REMARKS
GREENVILLE     NOT AVBL
ROCK HILL      CLEAR     19  14  81 SW5       29.92R WCI  12
ANDERSON       CLEAR     24  11  57 W16G22    29.97R WCI  11
CLEMSON        NOT AVBL
GREENWOOD      PTCLDY    24  10  55 W9G17     29.98R WCI  14


...................COASTAL AND OFFSHORE REPORTS..................

................LOCAL PIERS AND NC RESERVE................


STATION/POSITION TIME  SKY/WX   TEMP    WIND        PRES    VSBY
                                AIR SEA DIR/SP/G
                 (UTC)          (F)     (DEG/KT/KT) (MB)    (MI)
JOHNY MRCER PIER 1006            35 52  280/  7/ 12 1011.7R
NC RESRV MASNBRO NOT AVBL
OCEAN CREST PIER NOT AVBL
SPRINGMAID  PIER 1006            32 49  240/  7/  9 1013.8R


................COASTAL AND OFFSHORE BUOYS................


STATION/POSITION TIME  SKY/WX   TEMP    WIND        PRES    VSBY
                                AIR SEA DIR/SP/G
                 (UTC)          (F)     (DEG/KT/KT) (MB)    (MI)
DIMNDSHOAL 41025 1050            40 73  290/ 27/ 35 1009.0R
WVE H/P(F/S)=  9/14 SWL H/P/D(F/S/D)=  5/ 80/14

CAPE LOOKOUT     NOT AVBL
ONSLOW BAY 41036 NOT AVBL
ONSLOW BAY 41064 1008            40 59              1011.4R
ONSLOW BAY 41159 1025               59                N/A
WVE H/P(F/S)=  8/ 8 SWL H/P/D(F/S/D)=  2/100/14

5SE WRITBC 41038 1008            38 51  290/ 16/ 21 1012.8R
MASNBO INL 41110 1006               51                N/A
WVE H/P(F/S)=  3/13 SWL H/P/D(F/S/D)=  2/ 90/13

WILM HARBR 41108 1026               53                N/A
WVE H/P(F/S)=  6/ 7 SWL H/P/D(F/S/D)=  2/130/14

27SE WRITB 41037 1008            40 60  360/ 17/ 25 1010.6R
FRYING PAN 41013 1000            42 58  280/ 23/ 29 1012.6R
SUNST NRSH 41024 NOT AVBL
CAPRS NRSH 41029 1008            36     280/ 19/ 27 1014.9R
EDISTO     41004 1050            41 64  280/ 27/ 33 1014.6R
WVE H/P(F/S)=  8/ 7 SWL H/P/D(F/S/D)=  2/16



..........OFFSHORE BUOYS BEYOND 100 NM OFFSHORE...........
.....IN A TRIANGLE---HAT TO BERMUDA TO BAHAMAS TO HAT.....


STATION/POSITION TIME  SKY/WX   TEMP    WIND        PRES    VSBY
                                AIR SEA DIR/SP/G
                 (UTC)          (F)     (DEG/KT/KT) (MB)    (MI)
150E HAT   41001 1000            52 71  260/ 29/ 39 1006.8R
W BERMUDA  41048 1050            67 69  230/ 29/ 35 1010.0R
WVE H/P(F/S)= 19/12 SWL H/P/D(F/S/D)= 16/280/12

ATLANTIC S 41049 1050            76 76  190/ 14/ 17 1019.6R
WVE H/P(F/S)=  8/ 9 SWL H/P/D(F/S/D)=  7/240/ 9

E BAHAMAS  41046 1050            76 79  320/ 10/ 14 1018.7R
WVE H/P(F/S)=  8/ 8 SWL H/P/D(F/S/D)=  8/340/ 8

NE BAHAMAS 41047 1050            71 74  250/ 21/ 25 1016.6R
WVE H/P(F/S)= 11/10 SWL H/P/D(F/S/D)=  7/290/10

120E CANVRL41010 1020            57 72              1017.2R

END



USA.gov is the U.S. government's official web portal to all federal, state and local government web resources and services.